Stations météo

réclame
Mon MeteoGroup
Ansbach/Katterbach, Allemagne (10755): Température de l'air & dewpoint: 14.09.2018 22:00:00 - 20.09.2018 22:00:00 (CEST)Ansbach/Katterbach, Allemagne (10755): Vitesse du vent: 14.09.2018 22:00:00 - 20.09.2018 22:00:00 (CEST)Ansbach/Katterbach, Allemagne (10755): Direction du vent: 14.09.2018 22:00:00 - 20.09.2018 22:00:00 (CEST)Ansbach/Katterbach, Allemagne (10755): reduced air pressure: 14.09.2018 22:00:00 - 20.09.2018 22:00:00 (CEST)Ansbach/Katterbach, Allemagne (10755): visibility: 14.09.2018 22:00:00 - 20.09.2018 22:00:00 (CEST)
Date & Time tt [°C] td [°C] ff [km/h] ff [knt] dd ppp [hPa] vv [km]
20.09.2018 22:00:00 21,6 11,9 8 4 S 1016,8 10
20.09.2018 21:00:00 22,7 12,6 0 0 N 1017,3 10
20.09.2018 20:00:00 24,1 12,7 5 3 ESE 1017,2 10
20.09.2018 19:00:00 25,1 13,0 9 5 SSE 1017,2 10
20.09.2018 18:00:00 27,1 12,7 15 8 SSE 1017,3 10
20.09.2018 17:00:00 27,5 11,1 13 7 SW 1017,5 10
20.09.2018 16:00:00 27,4 11,8 0 0 N 1018,2 10
20.09.2018 15:00:00 27,3 12,1 13 7 W 1018,5 10
20.09.2018 14:00:00 28,4 12,3 15 8 SSW 1019,0 10
20.09.2018 13:00:00 27,2 13,2 13 7 SSW 1019,7 10
20.09.2018 12:00:00 26,2 13,6 9 5 SSW 1020,2 10
20.09.2018 11:00:00 24,6 13,5 9 5 S 1020,6 10
20.09.2018 10:00:00 22,0 13,9 0 0 N 1021,1 10
20.09.2018 09:00:00 19,1 13,5 5 3 S 1020,9 10
20.09.2018 08:00:00 15,1 12,9 5 3 SW 1021,1 10
20.09.2018 07:00:00 15,6 12,7 5 3 SW 1020,6 10
20.09.2018 06:00:00 15,2 12,9 5 3 SW 1020,4 10
20.09.2018 05:00:00 16,0 12,5 5 3 S 1020,2 10
20.09.2018 04:00:00 16,0 12,2 8 4 SSW 1020,2 10
20.09.2018 03:00:00 17,0 12,3 0 0 N 1020,6 10
20.09.2018 02:00:00 18,0 12,4 9 5 S 1020,6 10
20.09.2018 01:00:00 18,3 12,3 5 3 SW 1021,1 10
20.09.2018 00:00:00 18,5 12,7 5 3 S 1021,3 10
19.09.2018 23:00:00 19,1 13,0 5 3 SSE 1021,3 10
19.09.2018 22:00:00 20,3 13,3 11 6 SSE 1021,5 10
19.09.2018 21:00:00 21,9 12,4 11 6 SSE 1021,1 10
19.09.2018 20:00:00 22,3 13,4 9 5 SE 1020,8 10
19.09.2018 19:00:00 24,3 13,5 11 6 SE 1020,4 10
19.09.2018 18:00:00 26,6 11,1 9 5 S 1019,9 10
19.09.2018 17:00:00 27,2 11,6 11 6 SSE 1019,9 10
19.09.2018 16:00:00 27,3 11,3 11 6 W 1020,0 10
19.09.2018 15:00:00 26,4 11,3 15 8 S 1020,6 10
19.09.2018 14:00:00 25,0 13,5 11 6 S 1020,9 10
19.09.2018 13:00:00 23,0 14,5 9 5 SSE 1021,8 10
19.09.2018 12:00:00 20,8 14,7 15 8 SE 1022,3 10
19.09.2018 11:00:00 20,6 12,8 13 7 S 1021,8 10
19.09.2018 10:00:00 17,4 14,3 11 6 S 1022,2 10
19.09.2018 09:00:00 15,7 14,6 13 7 SSE 1021,8 10
19.09.2018 08:00:00 16,3 13,6 13 7 SE 1021,3 10
19.09.2018 07:00:00 17,1 12,2 8 4 S 1019,9 10
19.09.2018 06:00:00 17,4 11,2 9 5 S 1019,3 10
19.09.2018 05:00:00 17,8 11,1 11 6 SSW 1018,8 10
19.09.2018 04:00:00 19,1 10,6 11 6 SSW 1018,5 10
19.09.2018 03:00:00 18,8 10,9 9 5 SW 1018,5 10
19.09.2018 02:00:00 19,0 11,3 8 4 SSW 1018,1 10
19.09.2018 01:00:00 19,4 11,2 8 4 SW 1018,3 10
19.09.2018 00:00:00 19,8 11,3 8 4 SW 1018,0 10
18.09.2018 23:00:00 21,0 11,0 5 3 WSW 1017,8 10
18.09.2018 22:00:00 21,4 9,9 9 5 W 1017,7 10
18.09.2018 21:00:00 22,8 9,6 5 3 W 1017,5 10
18.09.2018 20:00:00 24,2 9,4 8 4 WNW 1017,0 10
18.09.2018 19:00:00 26,4 8,8 11 6 W 1016,5 10
18.09.2018 18:00:00 28,5 6,5 15 8 W 1016,0 10
18.09.2018 17:00:00 29,2 8,3 15 8 SW 1016,0 10
18.09.2018 16:00:00 29,0 8,6 11 6 W 1016,1 10
18.09.2018 15:00:00 28,8 9,5 15 8 S 1016,5 10
18.09.2018 14:00:00 28,5 9,7 15 8 WSW 1017,1 10
18.09.2018 13:00:00 27,8 10,5 9 5 WSW 1017,5 10
18.09.2018 12:00:00 - - - - - - -
18.09.2018 11:00:00 - - - - - - -
18.09.2018 10:00:00 - - - - - - -
18.09.2018 09:00:00 - - - - - - -
18.09.2018 08:00:00 - - - - - - -
18.09.2018 07:00:00 - - - - - - -
18.09.2018 06:00:00 - - - - - - -
18.09.2018 05:00:00 - - - - - - -
18.09.2018 04:00:00 - - - - - - -
18.09.2018 03:00:00 - - - - - - -
18.09.2018 02:00:00 - - - - - - -
18.09.2018 01:00:00 - - - - - - -
18.09.2018 00:00:00 - - - - - - -
17.09.2018 23:00:00 - - - - - - -
17.09.2018 22:00:00 - - - - - - -
17.09.2018 21:00:00 - - - - - - -
17.09.2018 20:00:00 - - - - - - -
17.09.2018 19:00:00 - - - - - - -
17.09.2018 18:00:00 - - - - - - -
17.09.2018 17:00:00 26,0 7,5 0 0 N 1019,6 10
17.09.2018 16:00:00 - - - - - - -
17.09.2018 15:00:00 - - - - - - -
17.09.2018 14:00:00 - - - - - - -
17.09.2018 13:00:00 - - - - - - -
17.09.2018 12:00:00 - - - - - - -
17.09.2018 11:00:00 - - - - - - -
17.09.2018 10:00:00 - - - - - - -
17.09.2018 09:00:00 - - - - - - -
17.09.2018 08:00:00 - - - - - - -
17.09.2018 07:00:00 - - - - - - -
17.09.2018 06:00:00 - - - - - - -
17.09.2018 05:00:00 - - - - - - -
17.09.2018 04:00:00 13,8 9,2 5 3 S 1021,1 10
17.09.2018 03:00:00 14,2 8,8 0 0 N 1021,7 10
17.09.2018 02:00:00 15,2 8,9 8 4 SSE 1022,0 10
17.09.2018 01:00:00 15,0 8,2 9 5 S 1022,4 10
17.09.2018 00:00:00 15,6 7,6 8 4 SSE 1022,4 10
16.09.2018 23:00:00 16,8 7,2 5 3 SE 1022,4 10
16.09.2018 22:00:00 17,1 7,2 9 5 SE 1022,6 10
16.09.2018 21:00:00 18,2 6,7 5 3 SE 1022,8 10
16.09.2018 20:00:00 20,0 6,7 0 0 N 1022,6 10
16.09.2018 19:00:00 21,6 6,3 5 3 SSE 1022,3 10
16.09.2018 18:00:00 - - - - - - -
16.09.2018 17:00:00 23,4 6,2 8 4 SSE 1022,1 10
16.09.2018 16:00:00 23,6 5,9 0 0 N 1022,6 10
16.09.2018 15:00:00 22,5 5,8 9 5 SSE 1023,5 10
16.09.2018 14:00:00 21,5 6,6 0 0 N 1023,8 10
16.09.2018 13:00:00 20,5 6,8 0 0 N 1024,1 10
16.09.2018 12:00:00 19,9 5,9 0 0 N 1025,2 10
16.09.2018 11:00:00 18,8 6,3 9 5 SE 1025,5 10
16.09.2018 10:00:00 15,9 6,6 0 0 N 1025,7 10
16.09.2018 09:00:00 13,2 7,0 0 0 N 1025,6 10
16.09.2018 08:00:00 - - - - - - -
16.09.2018 07:00:00 - - - - - - -
16.09.2018 06:00:00 8,2 5,1 0 0 N 1025,6 10
16.09.2018 05:00:00 8,6 5,2 0 0 N 1025,9 10
16.09.2018 04:00:00 - - - - - - -
16.09.2018 03:00:00 - - - - - - -
16.09.2018 02:00:00 - - - - - - -
16.09.2018 01:00:00 - - - - - - -
16.09.2018 00:00:00 - - - - - - -
15.09.2018 23:00:00 - - - - - - -
15.09.2018 22:00:00 - - - - - - -
15.09.2018 21:00:00 - - - - - - -
15.09.2018 20:00:00 - - - - - - -
15.09.2018 19:00:00 - - - - - - -
15.09.2018 18:00:00 19,2 5,6 15 8 NW 1024,6 10
15.09.2018 17:00:00 19,6 5,6 15 8 NW 1024,6 10
15.09.2018 16:00:00 19,9 5,5 13 7 WNW 1025,0 10
15.09.2018 15:00:00 20,1 5,7 11 6 NW 1025,0 10
15.09.2018 14:00:00 18,8 5,9 15 8 W 1025,2 10
15.09.2018 13:00:00 18,9 5,7 8 4 NW 1025,0 10
15.09.2018 12:00:00 18,8 5,9 13 7 NW 1025,0 10
15.09.2018 11:00:00 17,9 5,1 9 5 WSW 1025,0 10
15.09.2018 10:00:00 16,4 5,9 16 9 N 1024,6 10
15.09.2018 09:00:00 15,2 9,1 9 5 NNW 1024,5 10
15.09.2018 08:00:00 13,6 10,6 11 6 N 1023,8 10
15.09.2018 07:00:00 13,5 12,7 9 5 NW 1022,6 10
15.09.2018 06:00:00 14,1 13,8 9 5 WNW 1021,9 10
15.09.2018 05:00:00 14,5 13,9 8 4 W 1021,3 10
15.09.2018 04:00:00 14,5 14,0 8 4 W 1021,3 10
15.09.2018 03:00:00 14,1 13,8 5 3 WSW 1021,5 10
15.09.2018 02:00:00 13,6 13,4 5 3 WSW 1021,7 10
15.09.2018 01:00:00 14,3 13,3 0 0 N 1021,4 10
15.09.2018 00:00:00 15,6 13,3 0 0 N 1021,4 10
14.09.2018 23:00:00 16,4 13,1 0 0 N 1021,4 10
14.09.2018 22:00:00 17,2 13,1 0 0 N 1021,4 10

tt = Température de l'air
td = dewpoint
ff = Vitesse du vent
dd = Direction du vent
ppp = reduced air pressure
vv = visibility

stations d'obs. à proximité